Tucson, Arizona, United States (85701)
Lat: 32.22N, Lon: 110.93W
Wx Zone: AZZ504
Local Info
Past Weather Observations for Friday, July 31, 2015

NOTE: This archive is for the closest National Weather Service station to Tucson. Information may differ from the station used for current weather conditions.

Click here for Long-term Archive

Time Weather Temperature Dewpoint Humidity Pressure Winds Precip Visibility
23:58
Clear
75°F / 24°C 66°F / 19°C 74% 30.06 in
(1018 mb)
SE 12.7 mph
(SE 20 kph)
- 10SM
23:44
Clear
77°F / 25°C 66°F / 19°C 69% 30.06 in
(1018 mb)
ESE 13.8 mph
(ESE 22 kph)
- 10SM
22:58
Clear
77°F / 25°C 66°F / 19°C 69% 30.06 in
(1018 mb)
NE 5.8 mph
(NE 9 kph)
- 10SM
21:58
Clear
75°F / 24°C 68°F / 20°C 78% 30.09 in
(1019 mb)
SE 10.4 mph
(SE 17 kph)
0.00 in
(0.00 mm)
10SM
21:26
Clear
75°F / 24°C 68°F / 20°C 78% 30.09 in
(1019 mb)
ESE 10.4 mph
(ESE 17 kph)
- 10SM
21:11
Partly Cloudy
Drizzle
77°F / 25°C 68°F / 20°C 74% 30.09 in
(1019 mb)
E 5.8 mph
(E 9 kph)
- 10SM
20:58
Partly Cloudy
77°F / 25°C 68°F / 20°C 74% 30.09 in
(1019 mb)
NE 5.8 mph
(NE 9 kph)
0.00 in
(0.00 mm)
10SM
20:36
Partly Cloudy
77°F / 25°C 68°F / 20°C 74% 30.09 in
(1019 mb)
ENE 9.2 mph
(ENE 15 kph)
- 10SM
20:30
Partly Cloudy
Drizzle
77°F / 25°C 68°F / 20°C 74% 30.09 in
(1019 mb)
NE 5.8 mph
(NE 9 kph)
- 10SM
19:58
Clear
79°F / 26°C 68°F / 20°C 70% 30.09 in
(1019 mb)
NE 11.5 mph
(NE 19 kph)
0.01 in
(0.25 mm)
10SM
19:07
Clear
79°F / 26°C 68°F / 20°C 70% 30.06 in
(1018 mb)
SE 4.6 mph
(SE 7 kph)
- 10SM
18:58
Partly Cloudy
Light Rain
81°F / 27°C 68°F / 20°C 66% 30.06 in
(1018 mb)
W 3.5 mph
(W 6 kph)
0.00 in
(0.00 mm)
10SM
18:26
Mostly Cloudy
Drizzle
81°F / 27°C 64°F / 18°C 58% 30.04 in
(1017 mb)
SSW 10.4 mph
(SSW 17 kph)
- 10SM
17:58
Clear
82°F / 28°C 64°F / 18°C 55% 30.04 in
(1017 mb)
WNW 10.4 mph
(WNW 17 kph)
- 10SM
15:58
Clear
88°F / 31°C 64°F / 18°C 46% 30.01 in
(1016 mb)
W 9.2 mph
(W 15 kph)
0.00 in
(0.00 mm)
10SM
15:07
Partly Cloudy
86°F / 30°C 63°F / 17°C 46% 29.98 in
(1015 mb)
NW 5.8 mph
(NW 9 kph)
- 9SM
14:58
Partly Cloudy
Light Rain
86°F / 30°C 68°F / 20°C 55% 30.01 in
(1016 mb)
S 6.9 mph
(S 11 kph)
0.02 in
(0.51 mm)
6SM
14:51
Partly Cloudy
Drizzle
86°F / 30°C 66°F / 19°C 52% 30.01 in
(1016 mb)
SSW 1.2 mph
(SSW 2 kph)
- 10SM
14:41
Partly Cloudy
86°F / 30°C 68°F / 20°C 55% 30.01 in
(1016 mb)
SSW 10.4 mph
(SSW 17 kph)
- 10SM
14:29
Partly Cloudy
Light Rain
84°F / 29°C 66°F / 19°C 55% 30.01 in
(1016 mb)
SSW 12.7 mph
(SSW 20 kph)
- 6SM
14:25
Partly Cloudy
82°F / 28°C 66°F / 19°C 58% 30.01 in
(1016 mb)
SSE 3.5 mph
(SSE 6 kph)
- 10SM
13:58
Mostly Cloudy
Light Rain
82°F / 28°C 66°F / 19°C 58% 30.04 in
(1017 mb)
S 21.9 mph
(S 35 kph)
0.08 in
(2.03 mm)
9SM
13:44
Partly Cloudy
Heavy Rain
95°F / 35°C 61°F / 16°C 32% 30.04 in
(1017 mb)
S 4.6 mph
(S 7 kph)
- 10SM
12:58
Clear
99°F / 37°C 61°F / 16°C 29% 30.04 in
(1017 mb)
Calm - 10SM
11:58
Clear
97°F / 36°C 59°F / 15°C 28% 30.06 in
(1018 mb)
Variable 1.2 mph
(Variable 2 kph)
0.00 in
(0.00 mm)
10SM
10:58
Clear
93°F / 34°C 59°F / 15°C 32% 30.09 in
(1019 mb)
E 5.8 mph
(E 9 kph)
- 10SM
09:58
Clear
91°F / 33°C 57°F / 14°C 32% 30.09 in
(1019 mb)
SE 12.7 mph
(SE 20 kph)
- 10SM
08:58
Partly Cloudy
88°F / 31°C 61°F / 16°C 40% 30.09 in
(1019 mb)
SE 10.4 mph
(SE 17 kph)
- 10SM
07:58
Partly Cloudy
84°F / 29°C 63°F / 17°C 48% 30.09 in
(1019 mb)
SE 12.7 mph
(SE 20 kph)
- 10SM
06:58
Clear
81°F / 27°C 64°F / 18°C 58% 30.09 in
(1019 mb)
SE 9.2 mph
(SE 15 kph)
- 10SM
05:58
Clear
81°F / 27°C 64°F / 18°C 58% 30.06 in
(1018 mb)
E 4.6 mph
(E 7 kph)
- 10SM
04:58
Clear
81°F / 27°C 66°F / 19°C 62% 30.06 in
(1018 mb)
SSE 5.8 mph
(SSE 9 kph)
- 10SM
03:58
Partly Cloudy
81°F / 27°C 66°F / 19°C 62% 30.06 in
(1018 mb)
SE 6.9 mph
(SE 11 kph)
- 10SM
02:58
Mostly Cloudy
82°F / 28°C 66°F / 19°C 58% 30.06 in
(1018 mb)
SE 6.9 mph
(SE 11 kph)
- 10SM
01:58
Partly Cloudy
82°F / 28°C 66°F / 19°C 58% 30.06 in
(1018 mb)
SE 5.8 mph
(SE 9 kph)
- 10SM
00:58
Clear
82°F / 28°C 64°F / 18°C 55% 30.06 in
(1018 mb)
SSE 6.9 mph
(SSE 11 kph)
- 10SM
Time Weather Temperature Dewpoint Humidity Pressure Winds Precip Visibility


Weather for websites

WeatherForYou.com, LLC is not responsible for any damages or problems caused by this service. Current weather conditions are obtained from the closest station including government and personal stations which may have varying degrees of accuracy. Weather forecasts are derived from the NOAA NDFD. Like all things, this site belongs to Jesus Christ... He just trusts us to maintain it. If you have any questions or comments email webmaster@weatherforyou.com

Copyright © 2015, WeatherForYou.com LLC. All rights reserved.